Regional Weather Roundup
Issued by NWS

Home | Current Version | Previous Version | Graphics & Text | Print | Product List | Glossary On
Versions: 1 2 3 4 5 6 7 8 9 10 11 12 13 14 15 16 17 18 19 20 21 22 23 24 25 26 27 28 29 30 31 32 33 34 35 36 37 38 39 40 41 42 43 44 45 46 47 48 49 50
000
ASUS43 KLOT 130203
RWRIL

ILLINOIS REGIONAL WEATHER ROUNDUP
NATIONAL WEATHER SERVICE CHICAGO/ROMEOVILLE IL
800 PM CST FRI FEB 12 2016

NOTE: "FAIR" INDICATES FEW OR NO CLOUDS BELOW 12,000 FEET WITH NO
SIGNIFICANT WEATHER AND/OR OBSTRUCTIONS TO VISIBILITY.

* THESE STATIONS ARE NOT UNDER NWS QUALITY CONTROL. THEY ALSO MAY NOT
  REPORT WEATHER SUCH AS PRECIPITATION OR FOG.

ILZ001-002-007-009-015-016-024-130300-
NORTHWEST ILLINOIS

CITY           SKY/WX    TMP DP  RH WIND       PRES   REMARKS
MOLINE         CLEAR     12  -1  56 NW17G25   30.48R WCI  -5
STERLING*      CLEAR     14   0  52 NW17G23   30.40R WCI  -3
SAVANNA*       CLEAR     13  -3  50 NW15G21   30.45R WCI  -3
$$

ILZ003-004-008-010-011-017-018-130300-
NORTH CENTRAL ILLINOIS

CITY           SKY/WX    TMP DP  RH WIND       PRES   REMARKS
ROCKFORD       CLEAR     13  -5  44 N22G28    30.41R WCI  -6
FREEPORT*      CLEAR     11  -5  48 NW14G23   30.42R WCI  -4
ROCHELLE*      PTCLDY    14  -1  50 NW15G22   30.39R WCI  -2
DE KALB*       PTCLDY    13  -2  50 NW15G22   30.36R WCI  -3
$$

ILZ005-006-012>014-019>023-130300-
NORTHEAST ILLINOIS

CITY           SKY/WX    TMP DP  RH WIND       PRES   REMARKS
CHICAGO-OHARE  PTCLDY    13  -6  42 NW18G29   30.35R WCI  -4
CHICAGO-MIDWAY PTCLDY    16  -5  39 NW25G38   30.35R WCI  -3
AURORA         CLEAR     14  -3  47 N22G29    30.37R WCI  -4
LANSING*       PTCLDY    16  -5  39 N14G21    30.33R WCI   1
WAUKEGAN       CLEAR     10  -6  48 NW15G24   30.35R WCI  -7
DUPAGE AIRPORT CLEAR     13  -4  46 NW21G26   30.35R WCI  -5
WHEELING       CLEAR     12  -5  46 NW17G25   30.38R WCI  -5
MORRIS*        MOCLDY    17   3  56 N9        30.34S WCI   5
NORTHERLY ISL    N/A     16  -2  45 NW18        N/A  WCI   0
$$

LMZ740>746-130300-
SOUTHERN LAKE MICHIGAN

STATION/POSITION SKY/WX   TEMP    WIND        PRES    VSBY  WAVE
                          AIR SEA DIR/SP/G                  HT/PER
                          (F)     (DEG/KT/KT) (MB)    (MI)  (FT/S)
HARRISON CRIB              18     320/ 29/ 31   N/A
BURNHAM HARBOR             15     320/ 10/ 23   N/A
CALUMET HARBOR             17                 1025.7R
BURNS HARBOR               19     330/ 22/ 25 1025.4R
MICHIGAN CITY              18     310/ 34/ 38   N/A
$$

ILZ025>027-034>036-040-047-049-050-058-095>099-130300-
WEST-CENTRAL ILLINOIS

CITY           SKY/WX    TMP DP  RH WIND       PRES   REMARKS
QUINCY         CLEAR     16   3  56 NW18      30.50R WCI   0
MACOMB*        CLEAR     15   6  66 NW17G25   30.50R WCI  -1
$$

ILZ028>032-037-038-041>044-048-051>054-059>061-130300-
CENTRAL ILLINOIS

CITY           SKY/WX    TMP DP  RH WIND       PRES   REMARKS
BLOOMINGTON    CLEAR     15   3  59 NW14G23   30.39R WCI   0
DECATUR        CLEAR     19   2  47 NW21G30   30.39R WCI   3
PEORIA         CLEAR     15   1  53 NW13G24   30.44R WCI   1
LACON*         CLEAR     15   2  56 NW17G24   30.43R WCI  -2
LINCOLN*       CLEAR     19   4  52 NW9G21    30.43R WCI   7
SPRINGFIELD    CLEAR     20   4  50 NW14G28   30.44R WCI   7
TAYLORVILLE    NOT AVBL
$$

ILZ033-039-045-046-055>057-062-063-130300-
EAST-CENTRAL ILLINOIS

CITY           SKY/WX    TMP DP  RH WIND       PRES   REMARKS
CHAMPAIGN      CLEAR     18   7  62 NW17      30.37R WCI   3
MATTOON        CLEAR     20   7  57 NW18G25   30.36R WCI   5
$$

ILZ079-100>102-130300-
SOUTHWEST ILLINOIS

CITY           SKY/WX    TMP DP  RH WIND       PRES   REMARKS
ALTON          CLEAR     23   9  54 NW14G22   30.46R WCI  11
BELLEVILLE     CLEAR     25  11  55 NW17G24   30.44R WCI  11
CAHOKIA*       CLEAR     26   9  48 NW15      30.46R WCI  14
SPARTA*        CLEAR     26  16  63 NW6       30.45R WCI  20
$$

ILZ064>066-069>071-074>076-080>082-084>086-088>090-092>094-130300-
SOUTH-CENTRAL ILLINOIS

CITY           SKY/WX    TMP DP  RH WIND       PRES   REMARKS
CARBONDALE     CLEAR     26  15  63 NW8       30.44R WCI  18
CAIRO*         CLEAR     31  23  72 N14       30.42R WCI  21
MARION         CLEAR     28  16  59 NW5       30.44R WCI  23
MT. VERNON     CLEAR     25  12  58 NW5       30.42R WCI  19
CENTRALIA*     PTCLDY    26  16  67 NW16G23   30.41S WCI  13
SALEM*         PTCLDY    26  13  58 NW13G20   30.41S WCI  15
$$

ILZ067-068-072-073-078-083-087-091-130300-
SOUTHEAST ILLINOIS

CITY           SKY/WX    TMP DP  RH WIND       PRES   REMARKS
LAWRENCEVILLE  PTCLDY    24  14  65 W14       30.38R WCI  12
HARRISBURG*    CLEAR     26  17  66 NW9G17    30.43R WCI  17
ROBINSON*      CLEAR     24  13  64 NW12G18   30.38R WCI  13
CARMI*         PTCLDY    25  16  68 NW9       30.41R WCI  15
$$

ABBREVIATIONS USED IN REMARKS
   TC - TEMPERATURE IN CELSIUS
  WCI - WIND CHILL INDEX
   HX - HEAT INDEX
  VSB - VISIBILITY
$$




USA.gov is the U.S. government's official web portal to all federal, state and local government web resources and services.